SAUDICOMSAT 6

Last updated on Thu Aug 20 2026 00:03:14 GMT+0000 (Coordinated Universal Time)

1 31121U 07012E 26231.16680838 .00000385 00000+0 83050-4 0 9997 2 31121 98.4163 199.8768 0072661 130.0244 230.7363 14.62607539 29395
UTC large
Height (km)
Speed (km/s)
/
Latitude / Longitude
Inclination (degrees)
Orbital Period (minutes)
Azimuth
Elevation
Range (km)
Doppler Factor

Next 0 passes for location: London (51.5072 / 0.1276)

No passes found over London.
SAUDICOMSAT 6